Theta_e
321 314 315 323 321 321 321 322 320 322 321 321 321 322 324 324 328 329 336 336 328 326 323 321 319 321 321 320 317 320 323 323 323 321 318 318 319 319 319 319 318 317 317 317 317 317 316 316 316
321 315 321 320 320 320 320 319 322 321 321 320 321 321 323 325 323 326 328 333 329 326 325 321 319 320 319 317 317 319 320 320 320 319 320 320 321 320 320 319 319 319 318 318 318 318 318 318 318
321 319 325 324 319 318 319 319 321 321 319 319 322 323 323 328 335 330 331 327 330 326 325 323 319 319 318 318 319 320 321 321 321 320 321 321 321 321 320 320 320 319 319 319 319 319 319 319 319
323 323 322 324 320 318 319 321 321 320 320 320 322 327 325 328 332 337 337 330 330 325 325 323 320 318 318 318 321 322 322 322 322 321 321 321 321 321 320 320 320 319 319 319 319 319 319 319 320
323 326 325 325 321 320 318 319 319 320 321 322 325 328 326 329 333 337 340 336 329 325 325 324 322 320 319 319 320 322 322 322 322 322 322 321 321 321 320 320 320 319 319 319 319 319 319 319 319
324 324 326 326 324 319 320 320 321 323 325 326 327 326 327 327 328 340 339 335 325 325 325 324 322 321 319 319 320 322 322 323 323 322 322 321 321 321 320 320 320 319 320 319 319 319 319 319 319
325 325 324 324 323 323 323 326 327 326 327 326 325 327 326 327 326 341 337 331 325 324 325 324 323 321 321 320 321 322 322 323 323 323 322 322 321 321 320 320 319 319 319 319 319 319 319 319 319
326 326 324 323 323 323 324 326 326 325 326 324 324 327 325 326 323 338 337 329 326 323 323 324 323 321 320 320 321 322 322 322 322 322 322 321 320 320 320 319 319 318 318 318 318 318 319 319 319
319 326 325 325 324 324 325 325 325 324 324 324 323 323 321 326 322 329 339 329 326 324 322 322 323 321 321 321 321 321 322 322 322 321 321 320 320 320 319 319 318 318 317 317 317 317 317 318 318
320 321 322 324 325 326 325 323 323 322 322 322 322 321 320 320 325 324 339 331 327 323 322 322 322 322 321 321 321 321 321 321 321 321 320 320 320 320 319 318 318 318 317 317 316 316 316 316 317
315 318 320 321 318 319 320 322 319 320 322 322 319 319 319 319 320 323 323 338 333 324 323 321 321 321 321 320 320 321 321 321 321 320 320 320 320 319 319 318 318 318 318 317 317 316 316 316 315
314 314 315 318 315 314 316 318 316 317 319 318 317 318 317 319 319 320 326 325 336 336 324 322 321 321 320 320 320 320 320 320 320 321 321 320 320 319 318 318 318 318 318 317 317 316 316 316 315
312 312 312 312 312 312 312 315 317 316 315 315 316 316 317 317 318 319 320 324 327 333 330 323 322 321 320 320 320 320 320 321 321 320 320 320 320 319 319 319 318 318 318 317 317 317 316 316 315
311 311 312 311 312 312 312 313 313 315 314 314 315 316 317 318 318 318 319 321 327 330 335 327 324 322 321 320 321 320 320 320 321 321 320 320 320 320 320 320 319 320 320 319 320 322 321 319 318
310 311 311 311 311 312 311 312 313 312 313 314 314 314 315 315 316 318 319 319 322 328 330 332 328 324 323 321 320 320 320 321 321 320 321 320 321 321 321 320 321 320 320 323 328 333 332 328 326
311 310 311 311 310 311 311 312 313 311 312 312 313 314 314 314 314 315 317 319 319 320 330 334 334 334 329 326 323 321 320 321 322 321 322 322 322 325 333 333 334 333 330 329 333 336 337 336 336
311 311 311 312 311 312 312 312 312 311 311 311 312 312 313 313 313 314 314 317 318 319 326 336 335 335 336 336 332 323 322 320 322 322 322 327 334 335 333 331 330 333 334 335 337 338 338 339 340
311 311 311 311 311 313 312 312 312 311 311 311 311 311 312 313 313 313 314 314 315 317 319 326 333 335 335 337 335 331 323 322 323 323 322 330 335 333 332 331 332 335 332 335 336 339 339 340 341
311 311 311 311 311 312 312 312 312 311 311 312 312 311 311 312 312 312 313 313 314 315 316 319 321 328 338 341 335 331 335 331 325 326 324 334 333 332 333 332 333 336 333 334 336 339 340 340 342
310 311 311 312 311 311 311 311 311 312 312 312 312 312 311 311 311 312 312 313 313 314 315 315 317 322 328 335 341 343 342 340 335 327 334 333 334 333 333 333 335 332 336 335 334 338 339 339 340
311 311 311 310 311 311 311 310 310 310 311 311 311 311 311 311 310 311 311 312 312 313 313 314 315 316 318 322 330 338 345 342 337 331 332 334 334 334 335 334 335 336 338 335 332 334 336 338 340
310 312 311 310 310 309 310 308 310 311 311 312 311 312 311 312 311 311 312 312 313 313 313 313 314 315 316 317 319 326 336 345 342 338 333 335 335 336 336 336 336 337 339 334 330 333 333 338 340
310 311 311 311 311 311 310 311 311 311 311 311 312 312 313 313 313 312 312 311 312 312 313 313 314 314 315 316 317 319 323 334 341 341 336 337 335 336 335 333 336 337 336 331 328 330 329 338 340
310 310 310 309 310 310 310 311 310 311 311 312 312 313 314 313 313 311 311 311 311 311 312 312 313 314 314 315 317 318 320 322 330 335 333 330 327 332 333 332 335 337 334 329 327 326 328 336 342
310 311 310 309 309 309 312 310 310 311 311 311 311 312 314 314 313 313 312 312 313 314 312 312 312 313 314 314 316 317 319 321 322 323 324 325 331 332 328 329 334 334 328 327 326 325 329 340 344
310 311 311 310 309 310 310 310 311 311 311 311 312 313 314 313 312 312 313 312 312 314 314 313 312 312 313 315 315 317 318 321 323 323 324 325 326 328 329 332 335 330 327 326 325 327 340 344 343
310 312 310 312 311 312 311 311 311 311 312 312 312 313 313 311 312 313 313 312 312 313 313 314 314 312 312 315 316 316 317 319 323 325 326 325 325 329 334 335 334 328 327 326 326 340 344 343 341
311 311 313 313 313 312 311 311 312 312 311 311 312 312 311 311 312 313 313 312 312 313 313 314 315 314 312 314 315 316 317 318 320 324 324 324 327 335 335 338 331 328 327 326 339 344 344 338 337
310 311 312 312 313 313 312 312 312 312 312 312 312 311 310 311 312 312 312 313 315 314 317 317 317 317 315 316 317 316 316 316 319 323 325 326 327 334 337 339 331 328 327 334 344 343 339 337 336
310 311 312 314 314 314 315 313 312 312 311 311 311 310 310 311 312 312 311 312 316 316 315 316 320 321 317 315 317 318 316 317 318 321 324 324 325 329 335 335 330 328 329 342 344 341 338 336 335
Wind_Speed
7 4 2 3 3 1 3 4 1 4 2 2 8 8 7 13 7 4 3 9 25 31 30 29 30 30 28 25 24 24 24 24 23 22 22 22 21 20 20 19 18 17 15 14 13 11 10 9 7
7 2 2 2 3 5 5 2 7 6 5 13 9 3 8 10 19 24 21 8 27 33 32 31 31 32 30 28 28 28 28 27 25 25 24 22 21 19 18 17 16 15 14 12 12 10 10 8 7
4 2 2 3 3 7 2 6 6 5 9 5 3 8 6 7 13 11 12 25 32 36 34 32 32 34 33 32 31 30 30 28 27 25 23 21 19 17 16 15 14 13 11 10 9 9 8 7 5
3 3 2 3 11 3 3 1 7 9 6 4 5 9 8 6 29 19 18 21 35 39 36 33 33 34 35 35 33 32 30 28 26 24 22 19 17 16 15 13 12 11 9 8 7 6 6 4 3
7 3 4 3 5 3 4 7 7 8 8 7 7 10 9 18 29 14 16 21 39 43 39 36 35 35 36 36 35 32 30 27 24 22 20 18 16 15 13 12 10 9 8 7 6 5 5 4 3
5 3 5 9 8 2 5 2 5 3 6 10 10 17 4 23 36 14 10 26 46 45 42 38 36 35 36 36 35 33 30 27 24 22 20 18 15 13 12 11 10 9 8 7 6 5 5 4 4
6 4 12 13 5 3 3 2 3 4 8 3 14 10 8 24 34 21 9 30 43 44 42 41 38 37 36 36 36 34 31 27 24 22 19 17 15 13 12 11 10 9 9 8 7 7 6 5 5
6 3 11 9 11 8 4 2 4 7 10 12 8 4 13 23 29 23 10 31 36 43 43 43 41 40 38 37 36 34 31 28 25 22 20 18 17 15 14 13 12 11 10 9 9 8 8 8 7
6 7 12 16 10 5 5 4 9 6 12 9 6 9 14 20 25 21 8 26 35 39 44 44 43 42 41 39 38 35 32 30 28 25 22 20 19 18 17 15 13 12 12 12 11 11 10 10 10
9 9 15 5 8 8 7 2 9 9 11 16 15 11 16 19 13 17 9 21 31 39 42 44 44 43 42 41 39 36 34 32 30 28 26 25 23 21 18 17 15 14 14 14 14 15 14 14 14
5 12 7 10 6 5 13 11 9 10 13 9 18 23 25 17 14 14 14 12 27 38 41 44 45 44 43 42 40 38 37 36 34 30 29 26 24 22 21 20 18 17 17 18 18 17 17 17 17
7 6 7 13 9 5 4 6 13 16 22 20 24 23 17 18 14 14 11 12 15 30 41 44 45 44 43 42 41 38 38 36 34 31 29 27 25 24 23 21 19 18 18 19 19 19 19 19 19
6 2 2 3 7 8 10 17 21 19 16 20 16 18 21 22 17 13 14 12 10 18 32 41 42 45 45 44 42 40 38 36 33 31 29 28 26 24 23 23 21 19 19 20 19 19 21 20 20
3 5 7 6 9 9 8 19 9 7 16 21 19 20 16 15 14 14 13 12 11 8 18 30 40 44 44 45 46 41 41 36 34 33 31 28 25 25 23 24 23 21 20 20 18 18 20 21 20
1 5 6 8 6 6 9 12 10 5 6 12 5 7 8 7 9 10 13 13 9 12 15 19 31 36 41 42 41 41 43 39 37 34 30 28 27 24 22 24 24 22 22 20 19 17 18 20 19
1 2 3 5 3 1 5 8 2 12 12 10 10 6 10 12 9 7 11 14 13 10 17 17 17 25 33 38 44 46 45 41 36 35 30 27 24 25 15 18 20 17 20 21 20 19 18 19 18
2 1 1 1 5 5 3 6 4 9 10 14 15 8 8 10 11 8 7 10 15 14 13 13 22 32 30 29 34 47 48 42 38 36 32 20 17 16 18 24 25 20 20 22 23 21 19 20 19
2 2 1 4 4 9 12 11 11 18 10 11 16 14 7 9 10 14 12 10 10 11 13 15 16 31 41 37 28 35 47 45 43 38 34 28 17 26 26 37 31 22 27 25 24 23 21 21 19
3 3 3 3 2 11 14 18 18 17 17 14 12 12 12 12 10 14 16 15 15 11 11 14 16 20 25 32 38 46 51 49 46 41 37 29 32 43 44 38 23 23 30 24 22 23 22 22 21
5 4 3 5 5 7 15 19 20 18 14 15 11 8 15 17 15 13 14 16 18 18 16 13 14 19 23 24 28 36 39 39 44 37 36 37 42 46 40 43 35 38 36 29 24 22 21 23 23
5 5 3 5 5 9 9 11 1 9 2 6 10 11 12 15 14 12 14 17 19 21 23 22 15 14 18 22 25 29 31 33 35 41 42 45 46 50 42 42 40 32 30 29 23 22 20 22 23
5 7 3 5 8 7 4 6 8 2 7 4 5 7 12 17 13 15 15 17 16 18 22 24 23 19 17 18 24 29 32 37 37 34 43 42 49 49 38 38 41 37 31 28 25 23 22 22 24
0 4 3 6 9 5 6 5 1 6 6 3 10 12 10 7 8 10 12 13 14 17 18 20 24 24 21 19 21 26 33 38 38 39 43 44 43 43 49 49 37 32 28 27 25 25 24 24 24
3 1 3 1 2 5 0 4 3 6 5 4 10 7 8 6 7 12 14 20 21 19 19 19 21 24 25 24 23 24 32 38 42 44 44 46 48 48 45 37 32 31 27 27 25 26 26 24 22
2 3 4 3 3 3 1 9 11 9 9 13 14 13 6 9 11 17 23 24 24 21 21 22 22 23 24 25 27 24 27 35 42 45 47 45 42 40 42 38 32 29 26 24 25 28 25 22 21
4 3 3 4 4 7 5 10 3 1 6 14 14 15 14 15 17 20 24 23 21 21 23 24 25 26 25 24 26 27 26 31 38 42 42 42 41 40 41 34 32 28 23 23 26 25 21 19 18
5 5 2 3 5 7 7 11 14 11 8 7 13 9 10 16 22 22 25 19 17 23 26 29 29 29 27 27 25 27 27 26 34 37 33 36 38 36 29 29 32 25 23 25 24 23 20 18 18
6 9 3 3 4 6 7 16 13 13 11 12 7 7 10 18 23 26 23 19 17 22 27 29 30 31 29 29 29 27 28 27 28 35 36 32 32 26 26 31 29 24 25 24 23 21 18 16 15
5 4 2 2 4 5 8 7 2 12 12 11 11 12 18 24 24 24 24 20 20 23 23 29 33 31 27 28 29 29 28 28 26 32 32 26 23 21 26 29 28 26 25 24 24 20 16 16 16
3 9 10 7 6 5 5 15 11 13 5 12 26 31 26 24 24 25 27 26 23 22 23 24 30 28 23 25 28 30 28 28 29 31 33 29 27 25 25 27 26 27 25 25 22 20 17 19 20
Wind_Direction
327 357 185 165 202 223 237 222 132 205 252 214 285 279 265 277 217 223 154 230 189 186 182 181 174 170 170 168 160 156 154 154 156 152 150 146 141 137 133 131 131 131 128 126 125 124 121 118 116
313 63 173 267 219 219 221 233 208 208 300 310 300 274 274 274 244 256 263 244 193 187 179 180 174 169 168 164 159 156 155 155 155 155 153 148 145 143 139 137 136 133 133 133 132 128 122 116 108
279 163 171 270 191 227 212 213 233 192 312 255 299 298 277 333 325 272 289 228 192 186 179 180 173 170 169 164 159 158 157 158 159 159 156 154 150 147 146 144 143 142 143 139 136 128 119 111 111
192 157 83 233 237 204 220 244 228 301 328 259 323 299 307 327 334 283 296 205 194 183 179 182 174 172 172 169 164 163 162 162 163 163 162 160 158 160 157 156 154 153 153 150 146 135 128 127 126
194 145 228 238 268 304 248 278 273 299 290 291 332 316 301 334 346 305 269 215 197 182 179 182 177 175 175 174 170 169 168 167 168 169 170 170 171 171 172 170 169 170 171 171 167 164 161 169 172
186 166 219 238 247 243 277 310 294 324 297 311 343 328 329 340 0 340 264 205 187 183 179 183 182 181 179 180 177 176 174 174 176 178 179 182 183 184 187 187 190 192 193 194 191 194 199 204 209
211 199 234 249 202 256 243 360 300 320 317 316 336 314 319 350 0 350 232 185 185 184 183 184 185 185 185 185 185 183 181 181 185 187 189 192 194 198 203 208 211 213 216 215 217 218 225 228 232
207 217 231 236 228 229 219 251 282 282 298 310 336 346 334 344 354 351 236 190 185 185 187 188 188 189 190 192 192 191 189 189 195 196 200 201 205 210 215 220 224 230 236 238 242 240 240 247 247
178 226 233 234 208 209 176 243 287 276 291 289 293 306 326 340 343 352 270 202 194 189 190 192 194 193 193 196 197 198 197 198 202 204 209 212 215 218 222 228 234 241 248 252 257 257 256 256 258
201 226 226 220 224 199 201 217 283 289 295 290 286 292 322 334 336 338 309 212 205 198 196 198 198 201 196 200 201 202 204 205 208 210 213 217 222 226 231 236 239 246 253 257 259 261 262 263 266
196 234 224 222 240 272 281 234 256 274 283 275 307 317 325 339 342 333 338 262 232 209 204 204 204 206 203 204 205 207 211 210 211 215 219 223 228 231 234 238 242 248 255 259 262 266 268 272 271
229 230 235 248 270 302 262 267 255 255 267 283 294 306 312 321 333 335 312 313 274 235 216 209 209 210 212 212 211 213 216 220 220 220 225 229 235 238 242 246 251 256 260 264 268 272 272 275 274
221 232 284 271 288 268 274 253 249 274 271 287 291 298 300 302 302 315 334 313 282 258 236 219 215 217 215 217 219 218 221 227 229 233 232 238 241 244 250 255 258 263 269 269 273 276 277 277 276
177 258 269 273 258 252 255 263 276 241 296 295 295 298 296 288 298 288 305 320 265 261 258 237 233 224 223 220 220 222 226 228 234 236 237 240 248 253 257 266 264 268 273 274 274 275 276 273 273
255 272 281 249 261 253 268 267 253 350 304 286 336 328 334 334 294 276 273 298 313 269 254 245 237 236 237 236 231 228 230 227 235 237 245 247 250 259 264 270 273 275 274 271 270 269 270 271 274
219 190 218 117 6 329 210 254 139 26 7 330 323 328 325 326 336 314 273 262 288 292 255 238 236 244 239 238 239 239 233 230 232 240 245 253 263 269 275 293 276 288 278 270 268 266 267 269 269
31 171 322 62 69 356 341 293 274 339 346 322 316 316 318 318 314 313 315 266 261 275 272 249 229 247 269 245 250 239 243 239 237 240 241 249 271 259 269 285 269 278 285 275 269 265 265 265 265
145 144 280 305 17 331 304 283 294 299 283 276 296 299 307 311 310 309 303 295 270 268 268 263 243 221 233 233 250 249 245 242 242 241 241 233 266 272 281 256 264 277 298 278 273 267 266 264 261
175 189 221 278 267 327 299 299 299 286 276 269 261 265 289 292 285 294 290 288 284 270 275 253 245 244 242 239 225 228 248 242 237 240 238 232 240 240 257 255 269 294 278 278 275 263 261 265 262
191 205 224 276 260 295 296 296 287 283 266 256 224 247 287 290 267 263 273 282 283 284 281 283 264 251 249 242 235 242 244 245 242 227 219 230 236 244 246 249 261 244 261 273 275 266 264 268 266
208 222 218 278 299 274 299 293 62 329 197 213 262 281 294 291 269 278 292 295 300 281 278 281 277 266 259 253 246 247 243 247 240 231 233 230 235 249 256 262 259 263 259 269 277 272 268 270 268
243 206 231 283 312 306 346 296 269 156 310 244 301 307 300 303 288 290 294 297 292 288 281 276 277 270 268 259 252 246 250 244 235 236 229 240 246 255 254 261 261 266 256 265 273 274 275 266 261
264 164 279 288 289 291 260 257 198 221 224 184 326 319 305 305 315 312 319 320 309 311 298 286 276 269 267 269 261 254 243 247 244 235 235 246 252 253 258 267 261 256 250 260 269 274 277 268 255
103 259 289 170 252 248 224 252 213 209 204 269 310 291 289 304 322 338 333 335 329 314 307 301 283 272 268 264 269 264 257 249 244 242 243 249 259 254 253 257 257 247 248 257 268 274 270 260 251
129 318 302 244 220 304 140 290 258 230 254 289 295 288 306 328 323 332 328 324 331 328 311 301 295 279 272 269 262 267 262 250 249 248 251 251 252 253 259 259 255 240 244 256 263 270 257 244 245
194 247 265 285 263 294 263 252 246 70 284 284 286 282 296 318 330 325 325 316 322 325 321 308 293 283 274 269 264 260 265 254 244 243 245 253 255 258 264 260 242 233 241 250 263 255 239 232 234
156 211 27 278 257 269 240 259 275 278 297 288 303 298 299 331 330 329 327 307 304 314 321 315 302 283 273 270 267 257 257 259 247 238 242 252 257 262 256 240 234 232 238 251 251 236 229 225 235
242 145 182 193 258 258 258 271 265 300 312 308 323 313 318 328 328 328 327 307 304 316 320 312 299 289 273 265 268 262 255 257 251 240 236 246 256 251 232 230 229 230 244 245 230 220 215 229 223
180 202 159 275 245 269 297 277 359 305 317 316 321 320 316 319 321 316 318 311 301 309 315 316 299 291 275 262 263 261 255 252 252 236 227 225 242 242 229 230 227 242 238 227 216 208 221 214 212
261 246 233 233 212 235 286 274 289 280 319 317 309 305 306 305 310 311 314 307 301 298 304 310 308 296 286 270 265 258 255 248 248 238 230 229 231 236 232 227 232 235 227 216 207 218 214 212 219